Terug naar catalogus

STARLINK-35779

ActiefCommunicatieVLEO
NORAD 67047·PAYLOAD·🇺🇸 United States

Gelanceerd Dec 11, 2025 vanaf Cape Canaveral Space Force Station

Loading…

Volgende Passages (komende 24 uur)

TLE

VersSource: CelesTrak SupGP

Epoch: Sep 15, 2026, 03:47 UTC

1 67047C 25294T   26258.15812500 -.00015567  00000+0 -56371-3 0  2589
2 67047  43.0045  47.9781 0001592 260.3103 215.5344 15.27593708    12

Volg STARLINK-35779 in realtime met AllMySat

Download on the App Store